Regional Weather Roundup
Issued by NWS

Home | Current Version | Previous Version | Text Only | Print | Product List | Glossary Off
Versions: 1 2 3 4 5 6 7 8 9 10 11 12 13 14 15 16 17 18 19 20 21 22 23 24 25 26 27 28 29 30 31 32 33 34 35 36 37 38 39 40 41 42 43 44 45 46 47 48 49 50

000
ASUS43 KMKX 271121
RWRWI

WISCONSIN REGIONAL WEATHER ROUNDUP
NATIONAL WEATHER SERVICE MILWAUKEE/SULLIVAN WI
600 AM CDT TUE SEP 27 2016

NOTE: "FAIR" INDICATES FEW OR NO CLOUDS BELOW 12,000 FEET WITH NO
SIGNIFICANT WEATHER AND/OR OBSTRUCTIONS TO VISIBILITY.

WIZ001-002-006>008-014>016-023>028-271200-
NORTHWEST WISCONSIN

CITY           SKY/WX    TMP DP  RH WIND       PRES   REMARKS
SUPERIOR ARPT  CLOUDY    52  46  79 NW12      29.70R
ASHLAND        LGT RAIN  49  47  93 W9        29.64S
HAYWARD        LGT RAIN  50  44  80 VRB3      29.70S
SIREN          CLOUDY    50  42  73 W10       29.75S
CUMBERLAND     CLOUDY    48  41  76 W15       29.74S
RICE LAKE      CLOUDY    50  42  72 W10       29.75S
CHETEK         NOT AVBL
LADYSMITH      LGT RAIN  52  44  74 W14       29.72S
EAU CLAIRE     CLOUDY    51  41  68 W13       29.75S
MENOMONIE      CLOUDY    51  41  68 W14       29.78S
NEW RICHMOND   CLEAR     46  39  78 W9        29.79S
OSCEOLA        CLEAR     48  41  77 W13G20    29.82S
$$

WIZ003>005-009-010-017-018-271200-
NORTH CENTRAL WISCONSIN

CITY           SKY/WX    TMP DP  RH WIND       PRES   REMARKS
MANITOWISH WTR NOT AVBL
ARBOR VITAE    DRIZZLE   49  47  92 W8G17     29.62S
WOODRUFF       DRIZZLE   49  47  92 W8G17     29.62S
RHINELANDER    LGT RAIN  48  46  93 W16       29.63F
EAGLE RIVER    DRIZZLE   47  47  99 W12G18    29.60S
LAND O LAKES   DRIZZLE   48  46  95 W10G16    29.59F
PHILLIPS       RAIN      46  46  97 W6        29.66S
TOMAHAWK       DRIZZLE   47  43  86 W9        29.66F
MEDFORD        CLOUDY    49  42  78 W9        29.69S
MERRILL        CLOUDY    51  43  73 W13G20    29.67F
$$

WIZ029-030-035-036-043>047-271200-
CENTRAL WISCONSIN

CITY           SKY/WX    TMP DP  RH WIND       PRES   REMARKS
WAUSAU         CLOUDY    51  42  71 W15G22    29.66F
MOSINEE        NOT AVBL
MARSHFIELD     CLOUDY    51  41  68 W13       29.70F
STEVENS POINT  CLOUDY    48  41  75 W7        29.70F
WAUPACA        CLOUDY    54  42  63 W14       29.71S
WAUTOMA        CLOUDY    50  41  71 W9        29.74S
WISC RAPIDS    CLOUDY    50  42  74 W10       29.73F
CAMP DOUGLAS   PTCLDY    48  39  71 W13       29.75F
$$

WIZ011>013-019>022-031-037>040-048>050-271200-
NORTHEAST WISCONSIN

CITY           SKY/WX    TMP DP  RH WIND       PRES   REMARKS
ANTIGO         CLOUDY    48  44  84 W12       29.65S
SHAWANO        CLOUDY    54  43  66 W9        29.66S
OCONTO         NOT AVBL
STURGEON BAY   LGT RAIN  53  45  74 W13       29.63F
GREEN BAY      CLOUDY    53  43  68 W13G20    29.66F
MANITOWOC      CLOUDY    54  41  61 MISG      29.68F
APPLETON       CLOUDY    52  39  62 W10       29.68F
CLINTONVILLE   NOT AVBL
OSHKOSH        CLOUDY    51  40  65 W10       29.70F
$$

WIZ032>034-041-042-053>061-271200-
SOUTHWEST WISCONSIN

CITY           SKY/WX    TMP DP  RH WIND       PRES   REMARKS
LA CROSSE      CLEAR     53  39  59 W13       29.80S
SPARTA         CLEAR     50  40  69 W7        29.78S
VIROQUA        CLEAR     46  37  69 W8        29.80F
BOSCOBEL       CLEAR     50  39  66 S6        29.84F
PRAIRIE DU CHI CLEAR     50  36  57 W8G16     29.85S
PLATTEVILLE    CLEAR     47  39  74 W9        29.86S
$$

WIZ056-057-062-063-064-067-068-271200-
SOUTH CENTRAL WISCONSIN

CITY           SKY/WX    TMP DP  RH WIND       PRES   REMARKS
REEDSBURG      NOT AVBL
BARABOO/DELLS  CLEAR     50  36  59 W13G18    29.77S
LONE ROCK      CLEAR     48  39  71 W9        29.82S
MINERAL POINT  CLEAR     46  37  71 W9        29.83S
MADISON        PTCLDY    52  37  56 VRB6      29.78F
MIDDLETON      NOT AVBL
WATERTOWN      CLEAR     47  40  75 SW6       29.77F
MONROE         CLEAR     48  36  61 SW14      29.83S
JANESVILLE     CLEAR     50  37  62 SW8       29.81F
$$

WIZ051-052-058>065-066-070>072-271200-
SOUTHEAST WISCONSIN

CITY           SKY/WX    TMP DP  RH WIND       PRES   REMARKS
MILWAUKEE      CLEAR     53  38  56 W12       29.77F
WAUKESHA       CLEAR     48  37  66 W12G23    29.78F
MILWAUKEE/TIMM CLEAR     50  36  57 W13       29.77S
RACINE         CLEAR     50  38  63 SW8       29.79F
BURLINGTON     CLEAR     47  37  67 SW9       29.80S
KENOSHA        CLEAR     50  39  66 W12       29.80S
FOND DU LAC    CLOUDY    50  40  68 W7        29.73F
SHEBOYGAN      MOCLDY    52  39  61 W12       29.71F
WEST BEND      CLEAR     50  37  62 W12G18    29.74F
JUNEAU         CLEAR     46  39  77 SW10      29.76F
$$

LSZ147-162-271200-
LAKE SUPERIOR

STATION/POSITION TIME  TEMP    WIND        PRES    WAVE
                       AIR SEA DIR/SP/G            HT/PER
                 (UTC) (F)     (DEG/KT/KT) (MB)    (FT/S)
W MID LAKE BUOY  1050   51 46  280/ 17/ 21  999.6R   5/ 6
DEVILS ISLAND    1100   52     290/ 21/ 24 1002.6R
SAXON HARBOR     1040   51     240/  9/ 14 1003.0R
$$

LMZ867-665-643>646-271200-
LAKE MICHIGAN

STATION/POSITION TIME  TEMP    WIND        PRES    WAVE
                       AIR SEA DIR/SP/G            HT/PER
                 (UTC) (F)     (DEG/KT/KT) (MB)    (FT/S)
CHAMBERS ISLAND  1000   56     230/ 10/ 21 1002.0F
N MID LAKE BUOY  1050   58 66  250/ 23/ 29 1000.3F   6/ 6
NORTHPORT PIER   1000   56     260/  6/ 16 1002.0F
KEWAUNEE LAKESHO 1000   55     240/  7/ 12 1004.1F
SHEBOYGAN LAKESH 1100   53     250/ 12/ 14 1005.6F
PORT WASHINGTON  1000   52     260/  7/ 11 1008.1F
ATWATER BUOY     1100   54 57  240/ 12/ 14 1007.8F
MILWAUKEE LAKESH 1010   55     260/ 11/ 14   N/A
S MID LAKE BUOY  1050   61 70  260/ 25/ 29 1007.0F   4/ 6
KENOSHA   LAKESH 1100   53     250/ 11/ 16 1009.1S
$$

TC  - TEMPERATURE IN CELSIUS
VSB - VISIBILITY IN STATUTE MILES
WCI - WIND CHILL INDEX
HX  - HEAT INDEX




USA.gov is the U.S. government's official web portal to all federal, state and local government web resources and services.